GW7008 Weather Reports


Display with metric or nautical units.
time (UTC)temp
F
wind
direction
speed
MPH
gust
MPH
rain 1hr
in
rain 24hr
in
rain mn
in
humidity
%
barometer
mb
20260509064530 57 30 0.0 2.0 0.00 0.00 0.00 93 1012.4
20260509063051 57 30 0.0 0.0 0.00 0.00 0.00 93 1012.8
20260509061527 57 30 0.0 0.0 0.00 0.00 0.00 93 1013.1
20260509060021 57 30 0.0 0.0 0.00 0.00 0.00 93 1013.3
20260509054519 57 30 0.0 0.0 0.00 0.00 0.00 92 1013.4
20260509053024 57 30 0.0 2.0 0.00 0.00 0.00 92 1013.2
20260509051525 57 30 0.0 0.0 0.00 0.00 0.00 91 1013.2
20260509050014 57 30 0.0 0.0 0.00 0.00 0.00 90 1013.3
20260509044516 57 30 0.0 0.0 0.00 0.00 0.00 90 1013.3
20260509043020 57 30 0.0 0.0 0.00 0.00 0.00 89 1013.5
20260509041526 58 30 0.0 0.0 0.00 0.00 0.00 88 1013.8
20260509040027 58 30 0.0 0.0 0.00 0.00 0.00 88 1013.9
20260509034514 58 30 0.0 0.0 0.00 0.00 0.00 88 1014.3
20260509033018 59 30 0.0 0.0 0.00 0.00 0.00 88 1014.2
20260509031525 59 30 0.0 0.0 0.00 0.00 0.00 87 1014.4
20260509030026 59 30 0.0 0.0 0.00 0.00 0.00 87 1014.5
20260509024526 60 30 0.0 0.0 0.00 0.00 0.00 87 1014.5
20260509023024 60 30 0.0 0.0 0.00 0.00 0.00 85 1014.5
20260509021524 60 30 0.0 0.0 0.00 0.00 0.00 86 1014.3
20260509020036 60 30 0.0 0.0 0.00 0.00 0.00 85 1014.3
20260509014541 60 30 0.0 0.0 0.00 0.00 0.00 85 1014.3
20260509013037 61 30 0.0 0.0 0.00 0.00 0.00 86 1014.1
20260509011520 61 30 0.0 0.0 0.00 0.00 0.00 84 1014.1
20260509010025 61 30 0.0 0.0 0.00 0.00 0.00 84 1013.8
20260509004528 61 30 0.0 0.0 0.00 0.00 0.00 81 1013.7
20260509003027 61 30 0.0 0.0 0.00 0.00 0.00 81 1013.5
20260509001529 62 30 0.0 0.0 0.00 0.00 0.00 79 1013.8
20260509000022 62 30 0.0 0.0 0.00 0.00 0.00 74 1013.7
20260508234507 63 30 0.0 0.0 0.00 0.00 0.00 79 1013.7
20260508233012 63 30 0.0 0.0 0.00 0.00 0.00 72 1013.8
20260508231514 64 30 0.0 0.0 0.00 0.00 0.00 73 1013.4
20260508230030 64 30 0.0 0.0 0.00 0.00 0.00 70 1013.5
20260508224526 64 30 0.0 1.0 0.00 0.00 0.00 69 1013.6
20260508223016 65 101 0.0 0.0 0.00 0.00 0.00 67 1013.8
20260508221516 65 101 0.0 0.0 0.00 0.00 0.00 67 1013.8
20260508220018 65 102 0.0 2.0 0.00 0.00 0.00 72 1013.7
20260508214522 66 103 0.0 2.0 0.00 0.00 0.00 70 1013.6
20260508213028 66 103 0.0 0.0 0.00 0.00 0.00 73 1013.8
20260508211516 66 103 0.0 2.0 0.00 0.00 0.00 68 1013.6
20260508210018 66 103 0.0 2.0 0.00 0.00 0.00 68 1013.7
20260508204524 67 103 0.0 2.0 0.00 0.00 0.00 65 1013.8
20260508203025 67 103 0.0 2.0 0.00 0.00 0.00 64 1013.9
20260508201533 68 103 0.0 2.0 0.00 0.00 0.00 61 1013.7
20260508200022 68 105 0.0 2.0 0.00 0.00 0.00 63 1014.1
20260508194520 69 301 0.0 2.0 0.00 0.00 0.00 63 1014.6
20260508193024 69 277 1.0 2.0 0.00 0.00 0.00 55 1014.7
20260508191534 68 224 0.0 2.0 0.00 0.00 0.00 61 1014.9
20260508190034 69 143 1.0 2.0 0.00 0.00 0.00 58 1015.1
20260508184504 69 57 0.0 3.0 0.00 0.00 0.00 57 1015.3
20260508183015 71 94 0.0 3.0 0.00 0.00 0.00 56 1015.6
20260508181508 72 82 0.0 2.0 0.00 0.00 0.00 59 1015.5
20260508180016 72 33 0.0 3.0 0.00 0.00 0.00 54 1015.8
20260508174502 70 311 0.0 2.0 0.00 0.00 0.00 57 1016.0
20260508173003 69 37 0.0 2.0 0.00 0.00 0.00 58 1016.1
20260508171510 68 116 1.0 2.0 0.00 0.00 0.00 60 1016.2
20260508170016 68 359 0.0 1.0 0.00 0.00 0.00 58 1016.5
20260508164514 67 135 1.0 2.0 0.00 0.00 0.00 60 1016.7
20260508163005 66 167 1.0 2.0 0.00 0.00 0.00 64 1017.0
20260508161504 65 191 0.0 2.0 0.00 0.00 0.00 66 1017.2
20260508160019 64 124 0.0 2.0 0.00 0.00 0.00 72 1017.5
20260508154512 63 134 1.0 2.0 0.00 0.00 0.00 68 1017.5
20260508153020 61 136 0.0 2.0 0.00 0.00 0.00 71 1017.7
20260508151529 61 129 0.0 2.0 0.00 0.00 0.00 74 1017.9
20260508150010 60 153 0.0 2.0 0.00 0.00 0.00 77 1018.0
20260508144512 59 154 0.0 2.0 0.00 0.00 0.00 77 1017.8
20260508143024 58 154 0.0 2.0 0.00 0.00 0.00 81 1017.8
20260508141531 58 154 1.0 2.0 0.00 0.00 0.00 80 1017.9
20260508140004 57 259 0.0 1.0 0.00 0.00 0.00 83 1017.9
20260508134514 56 263 0.0 2.0 0.00 0.00 0.00 82 1018.0
20260508133028 55 239 0.0 2.0 0.00 0.00 0.00 84 1018.2
20260508131526 55 205 0.0 2.0 0.00 0.01 0.00 87 1018.0
20260508130032 54 162 0.0 0.0 0.00 0.01 0.00 91 1017.9
20260508124530 53 53 0.0 0.0 0.00 0.03 0.00 91 1017.8
20260508123012 52 53 0.0 0.0 0.00 0.05 0.00 93 1017.6
20260508121533 52 53 0.0 0.0 0.00 0.06 0.00 96 1017.3
20260508120032 51 254 0.0 0.0 0.00 0.32 0.00 96 1017.0
20260508114525 50 254 0.0 0.0 0.00 0.38 0.00 96 1016.6
20260508113037 50 254 0.0 0.0 0.00 0.40 0.00 95 1016.5
20260508111514 50 254 0.0 0.0 0.00 0.40 0.00 95 1016.2
20260508110029 50 254 0.0 0.0 0.00 0.41 0.00 94 1016.0
20260508104524 50 254 0.0 0.0 0.00 0.75 0.00 94 1015.7
20260508103027 50 254 0.0 0.0 0.00 0.92 0.00 94 1015.1
20260508101513 50 254 0.0 0.0 0.00 0.93 0.00 93 1015.0
20260508100004 51 254 0.0 0.0 0.00 0.94 0.00 92 1014.9
20260508094504 51 254 0.0 0.0 0.00 0.94 0.00 92 1014.8
20260508093012 51 254 0.0 0.0 0.00 0.94 0.00 90 1014.9
20260508091509 51 254 0.0 0.0 0.00 0.94 0.00 89 1014.5
20260508090033 51 254 0.0 2.0 0.00 0.94 0.00 90 1014.6
20260508084519 51 254 0.0 0.0 0.00 0.94 0.00 90 1014.5
20260508083003 51 254 0.0 0.0 0.00 0.94 0.00 90 1014.1
20260508081509 52 254 0.0 2.0 0.00 0.94 0.00 91 1014.4
20260508080033 52 254 0.0 0.0 0.00 0.95 0.00 91 1014.3
20260508074526 52 254 0.0 0.0 0.00 0.97 0.00 90 1014.3
20260508073026 53 254 0.0 0.0 0.00 1.00 0.00 89 1014.5
20260508071506 53 254 0.0 0.0 0.00 1.03 0.00 88 1014.3
20260508070009 54 254 0.0 2.0 0.00 1.04 0.00 87 1014.5